Terminal Aerodrome Forecast
Issued by NWS Pueblo, CO

Home | Current Version | Previous Version | Text Only | Print | Product List | Glossary On
Versions: 1 2 3 4 5 6 7 8 9 10 11 12 13 14 15 16 17 18 19 20 21 22 23 24 25 26 27 28
000
FTUS45 KPUB 130520
TAFALS
TAF
KALS 130520Z 1306/1406 10008KT P6SM SCT100 BKN130
     FM132000 19010KT P6SM VCTS BKN120CB=

USA.gov is the U.S. government's official web portal to all federal, state and local government web resources and services.